sat.trackr.live / text

‹ back to catalog

STARLINK-3208

NORAD 49769 · 2021-115AX

PAYLOAD ACTIVE UNKNOWN

§ Identity

Operator
Country
US
Launch date
2021-12-02
Launch site
AFETR
Launch vehicle
Mass (kg)
RCS (m²)

Purposes: comms

External: N2YO · Heavens-Above · Gunter

§ Orbital elements

Epoch: 2026-09-19T04:49:05.664000Z

Period
94.01 min
Inclination
53.1594°
Eccentricity
0.0001499
Mean motion
15.31700553 rev/d
Perigee alt
469.7 km
Apogee alt
471.8 km
Semi-major
6,848.9 km
B*
2.0167e-5
RAAN
339.8447°
Arg perigee
95.0697°
Mean anomaly
265.0475°
Rev number
26,503

§ Raw data

STARLINK-32081 49769U 21115AX  26262.20076000  .00000261  00000+0  20167-4 0  99962 49769  53.1594 339.8447 0001499  95.0697 265.0475 15.31700553265036

JSON: /api/v1/satellites/49769 · /tle

For live sub-satellite position, see the globe view (requires WebGL).

§ Visibility from observer

Set your observer location to see the next 7 days of passes ≥ 10°. The values pass through the URL so the page stays shareable.

No JS? Fill the form by hand. The geolocation button needs JavaScript.